Weather History for Westhampton Beach, NY

Change the Weather History Date:

Wednesday, April 16, 2014

  Actual Average Record
Temperature  
Mean Temperature 39 °F -  
Max Temperature 46 °F 55 °F 80 °F (2002)
Min Temperature 32 °F 36 °F 24 °F (2005)
Degree Days  
Heating Degree Days 26    
Moisture  
Dew Point 23 °F    
Average Humidity 59    
Maximum Humidity 93    
Minimum Humidity 26    
Precipitation  
Precipitation 0.23 in - - ()
Sea Level Pressure  
Sea Level Pressure 30.18 in    
Wind  
Wind Speed 17 mph (NNW)    
Max Wind Speed 26 mph    
Max Gust Speed 43 mph    
Visibility 9 miles    
Events Rain , Snow    
Averages and records for this station are not official NWS values.
T = Trace of Precipitation, MM = Missing Value Source: NWS Daily Summary

Daily Weather History Graph

Daily Weather History Graph

Search for Another Location

Airport:

Trip Planner

Search our weather history database for the weather conditions in past years. The results will help you decide how hot, cold, wet, or windy it might be!

Date:

Astronomy

Apr. 16, 2014 Rise Set
Actual Time 6:10 AM EDT 7:31 PM EDT
Civil Twilight 5:41 AM EDT 7:59 PM EDT
Nautical Twilight 5:07 AM EDT 8:34 PM EDT
Astronomical Twilight 4:31 AM EDT 9:10 PM EDT
Moon 9:12 PM EDT (4/16) 6:55 AM EDT (4/16)
Length of Visible Light 14h 18m
Length of Day
13h 21m
Full, 98% of the Moon is Illuminated
Apr 16
Full
Apr 22
Last Quarter
Apr 29
New
May 6
First Quarter
May 14
Full

Hourly Weather History & Observations

Time (EDT) Temp. Windchill Dew Point Humidity Pressure Visibility Wind Dir Wind Speed Gust Speed Precip Events Conditions
12:33 AM 37.4 °F 28.9 °F 33.8 °F 87% 29.85 in 6.0 mi NW 13.8 mph 24.2 mph 0.03 in Rain Light Rain
12:53 AM 37.0 °F 27.4 °F 34.0 °F 89% 29.86 in 5.0 mi NNW 17.3 mph 24.2 mph 0.06 in Rain Rain
1:13 AM 35.6 °F 25.9 °F 33.8 °F 93% 29.87 in 7.0 mi NNW 16.1 mph 26.5 mph 0.02 in Rain Rain
1:16 AM 35.6 °F 25.9 °F 33.8 °F 93% 29.87 in 6.0 mi NNW 16.1 mph 26.5 mph 0.03 in Rain Rain
1:34 AM 35.6 °F 24.2 °F 32.0 °F 87% 29.87 in 10.0 mi NW 21.9 mph 31.1 mph 0.03 in Rain Light Rain
1:53 AM 35.1 °F 22.5 °F 30.0 °F 82% 29.89 in 10.0 mi NNW 26.5 mph 42.6 mph 0.04 in Rain Light Rain
2:49 AM 33.8 °F 23.9 °F 28.4 °F 81% 29.93 in 5.0 mi NNW 15.0 mph 23.0 mph 0.07 in Rain Rain
2:53 AM 33.1 °F 23.4 °F 28.9 °F 85% 29.93 in 4.0 mi NNW 13.8 mph 23.0 mph 0.08 in Rain Light Freezing Rain
3:03 AM 33.8 °F 23.9 °F 28.4 °F 81% 29.90 in 4.0 mi NNW 15.0 mph 24.2 mph 0.03 in Rain Light Freezing Rain
3:30 AM 33.8 °F 23.9 °F 28.4 °F 81% 29.92 in 3.0 mi NNW 15.0 mph 28.8 mph 0.05 in Snow Light Snow
3:45 AM 33.8 °F 23.2 °F 28.4 °F 81% 29.93 in 9.0 mi NNW 17.3 mph 26.5 mph 0.05 in   Overcast
3:53 AM 33.1 °F 23.0 °F 28.0 °F 82% 29.90 in 10.0 mi North 15.0 mph 26.5 mph 0.05 in   Overcast
4:53 AM 33.1 °F 20.1 °F 23.0 °F 66% 30.00 in 10.0 mi NNW 25.3 mph 34.5 mph N/A   Partly Cloudy
5:53 AM 32.0 °F 19.8 °F 19.9 °F 61% 30.09 in 10.0 mi NW 20.7 mph 33.4 mph N/A   Clear
6:53 AM 32.0 °F 19.5 °F 19.0 °F 59% 30.17 in 10.0 mi NW 21.9 mph 32.2 mph N/A   Clear
7:53 AM 33.1 °F 21.9 °F 16.0 °F 50% 30.21 in 10.0 mi North 18.4 mph 39.1 mph N/A   Clear
8:53 AM 34.0 °F 22.4 °F 16.0 °F 48% 30.24 in 10.0 mi NNW 20.7 mph 28.8 mph N/A   Clear
9:53 AM 36.0 °F 24.4 °F 17.1 °F 46% 30.27 in 10.0 mi NW 23.0 mph 33.4 mph N/A   Clear
10:53 AM 37.9 °F 26.6 °F 17.1 °F 43% 30.31 in 10.0 mi NNW 25.3 mph 33.4 mph N/A   Clear
11:53 AM 39.9 °F 30.2 °F 17.1 °F 40% 30.34 in 10.0 mi North 20.7 mph 28.8 mph N/A   Clear
12:53 PM 42.1 °F 33.9 °F 17.1 °F 37% 30.36 in 10.0 mi NNW 17.3 mph 27.6 mph N/A   Clear
2:53 PM 45.0 °F 38.5 °F 14.0 °F 29% 30.40 in 10.0 mi North 13.8 mph 24.2 mph N/A   Clear
3:53 PM 46.0 °F 38.8 °F 12.9 °F 26% 30.40 in 10.0 mi NNW 18.4 mph 26.5 mph N/A   Clear
4:53 PM 46.9 °F - 15.1 °F 28% 30.41 in 10.0 mi North 12.7 mph 21.9 mph N/A   Clear
5:53 PM 45.0 °F 37.6 °F 15.1 °F 30% 30.43 in 10.0 mi NNW 17.3 mph 20.7 mph N/A   Clear
6:53 PM 44.1 °F 39.0 °F 17.1 °F 34% 30.45 in 10.0 mi North 9.2 mph 25.3 mph N/A   Clear
7:53 PM 39.9 °F 35.8 °F 19.0 °F 43% 30.48 in 10.0 mi Variable 5.8 mph - N/A   Clear
8:53 PM 39.0 °F 34.0 °F 21.0 °F 49% 30.52 in 10.0 mi North 6.9 mph - N/A   Clear
9:53 PM 39.0 °F 33.4 °F 18.0 °F 43% 30.54 in 10.0 mi North 8.1 mph - N/A   Clear
10:53 PM 39.9 °F 33.4 °F 18.0 °F 41% 30.56 in 10.0 mi NNE 10.4 mph - N/A   Clear
11:53 PM 37.9 °F 31.5 °F 19.0 °F 47% 30.59 in 10.0 mi NNE 9.2 mph - N/A   Clear